Location: Northcutt
(34.7304°N, 84.4305°W)
Time: 07:35:47
(UTC+00:00)

Courier 1B - Pass Details

Date: 05 October 2022
Orbit: 962 x 1209 km, 28.3° (Epoch: 30 November)

Event Time Altitude Azimuth Distance (km) Brightness Sun altitude
Rises 01:01:02 0° 263° (W) 3,782 11.9 -22.0°
Reaches altitude 10° 01:05:04 10° 242° (WSW) 2,778 10.5 -22.9°
Maximum altitude 01:08:40 15° 209° (SSW) 2,387 9.7 -23.6°
Drops below altitude 10° 01:12:11 10° 176° (S) 2,709 9.7 -24.3°
Enters shadow 01:12:39 - 172° (S) 2,795 9.7 -24.4°
